Find OneWeb SL0112

NORAD ID: 48051 Int'l Des: 2021-025 Owner: ONEWEBN Country: UK Constellation: oneweb operational
又名: ONEWEB-0112 spacetrack, celestrak
LEOCIRCULARPOLARONEWEB_TYPE

当前视图

正在加载3D地球...

About OneWeb SL0112

OneWeb SL0112 (NORAD 48051) is a oneweb constellation satellite launched Mar 25, 2021 by ONEWEBN of UK. It operates in LEO, CIRCULAR, POLAR, ONEWEB_TYPE orbit with a mass of 148.00 kg.

即将过境

Passes for default location (London). Set your location on the main map for personalized predictions.

高度历史

Loading altitude history...

两行轨道根数

1 48051U 21025K 26265.08378507 -.00003143 00000-0 -86433-2 0 9996
2 48051 87.8921 300.9354 0001631 87.4964 272.6352 13.13488874266310
Epoch: Sep 22, 2026 • Age: 16 hours

当前状态

高度 1235.4 km
远地点 / 近地点 N/A
速度 7.24 km/s
星下点 -64.25°S, 22.75°E
发射日期 Mar 25, 2021
运行时间 5.4 years
类型 internet

技术详情

分类 Payload
质量 148.00 kg
干质量 140.00 kg
长度 1.30 m
直径 1.00 m
跨度 5.00 m
形状 ? Trapezoid+2 pan
制造商 ONEWUS
平台类型 ARROW
阶段状态 In Orbit
所有者/国家 ONEWEBN/UK

Most Searched